Elmira, NY

5:22 AM EST on December 09, 2019 (GMT -0500)
Elmira-Corning Regional

Weather History for KELM - October, 2019

Change the Weather History Date:

Tuesday, October 29, 2019

  Actual Average Record
Temperature  
Mean Temperature 52 °F -  
Max Temperature 61 °F 56 °F 77 °F (1984)
Min Temperature 42 °F 33 °F 17 °F (1976)
Degree Days  
Heating Degree Days 14    
Growing Degree Days 2 (Base 50)    
Moisture  
Dew Point 48 °F    
Average Humidity 81    
Maximum Humidity 97    
Minimum Humidity 70    
Precipitation  
Precipitation 0.00 in - - ()
Sea Level Pressure  
Sea Level Pressure 30.20 in    
Wind  
Wind Speed 3 mph (SSW)    
Max Wind Speed 12 mph    
Max Gust Speed -    
Visibility 10 miles    
Events      
Averages and records for this station are not official NWS values.
T = Trace of Precipitation, MM = Missing Value Source: NWS Daily Summary

Daily Weather History Graph

Daily Weather History Graph

Search for Another Location

Airport or City:

Astronomy

Oct. 29, 2019 Rise Set
Actual Time 7:36 AM EDT 6:05 PM EDT
Civil Twilight 7:07 AM EDT 6:34 PM EDT
Nautical Twilight 6:34 AM EDT 7:07 PM EDT
Astronomical Twilight 6:02 AM EDT 7:39 PM EDT
Moon 9:08 AM EDT (10/29) 7:26 PM EDT (10/29)
Length of Visible Light 11h 26m
Length of Day
10h 28m
Waxing Crescent, 3% of the Moon is Illuminated
Oct 29
Waxing Crescent
Nov 4
First Quarter
Nov 12
Full
Nov 19
Last Quarter
Nov 26
New

Hourly Weather History & Observations

Time (EDT) Temp. Dew Point Humidity Pressure Visibility Wind Dir Wind Speed Gust Speed Precip Events Conditions
12:53 AM 43.0 °F 41.0 °F 93% 30.18 in 10.0 mi Calm Calm - N/A   Clear
1:53 AM 42.1 °F 41.0 °F 96% 30.17 in 10.0 mi Calm Calm - N/A   Clear
2:53 AM 42.1 °F 41.0 °F 96% 30.18 in 10.0 mi Calm Calm - N/A   Partly Cloudy
3:15 AM 43.0 °F 41.0 °F 93% 30.18 in 10.0 mi Calm Calm - N/A   Mostly Cloudy
3:53 AM 44.1 °F 42.1 °F 93% 30.18 in 10.0 mi Calm Calm - N/A   Mostly Cloudy
4:06 AM 42.1 °F 41.0 °F 96% 30.17 in 10.0 mi Calm Calm - N/A   Scattered Clouds
4:53 AM 43.0 °F 42.1 °F 97% 30.17 in 10.0 mi Calm Calm - N/A   Clear
5:53 AM 51.1 °F 45.0 °F 80% 30.17 in 10.0 mi SW 5.8 mph - N/A   Mostly Cloudy
6:53 AM 53.1 °F 48.0 °F 83% 30.18 in 10.0 mi West 3.5 mph - N/A   Overcast
7:53 AM 55.0 °F 48.9 °F 80% 30.19 in 10.0 mi SSW 6.9 mph - N/A   Overcast
8:53 AM 57.0 °F 48.9 °F 74% 30.22 in 10.0 mi SSW 11.5 mph - N/A   Overcast
9:53 AM 57.9 °F 50.0 °F 75% 30.22 in 10.0 mi South 8.1 mph - N/A   Overcast
10:53 AM 57.9 °F 50.0 °F 75% 30.22 in 10.0 mi South 8.1 mph - N/A   Overcast
11:53 AM 59.0 °F 51.1 °F 75% 30.22 in 10.0 mi South 8.1 mph - N/A   Overcast
12:53 PM 60.1 °F 51.1 °F 72% 30.20 in 10.0 mi South 9.2 mph - N/A   Overcast
1:53 PM 61.0 °F 51.1 °F 70% 30.19 in 10.0 mi SSW 8.1 mph - N/A   Overcast
2:53 PM 61.0 °F 51.1 °F 70% 30.19 in 10.0 mi SSW 8.1 mph - N/A   Overcast
3:53 PM 61.0 °F 51.1 °F 70% 30.19 in 10.0 mi SSW 9.2 mph - N/A   Overcast
4:53 PM 61.0 °F 51.1 °F 70% 30.20 in 10.0 mi South 8.1 mph - N/A   Overcast
5:53 PM 60.1 °F 51.1 °F 72% 30.19 in 10.0 mi South 10.4 mph - N/A   Overcast
6:53 PM 57.9 °F 50.0 °F 75% 30.19 in 10.0 mi SSE 6.9 mph - N/A   Overcast
7:53 PM 57.0 °F 50.0 °F 77% 30.21 in 10.0 mi SSW 4.6 mph - N/A   Overcast
8:53 PM 57.0 °F 50.0 °F 77% 30.22 in 10.0 mi SSW 5.8 mph - N/A   Overcast
9:53 PM 55.0 °F 50.0 °F 83% 30.23 in 10.0 mi Calm Calm - N/A   Overcast
10:53 PM 55.0 °F 51.1 °F 86% 30.24 in 10.0 mi Calm Calm - N/A   Overcast
11:53 PM 57.0 °F 51.1 °F 81% 30.25 in 10.0 mi Calm Calm - N/A   Overcast